TimeCDT,TemperatureF,Dew PointF,Humidity,Sea Level PressureIn,VisibilityMPH,Wind Direction,Wind SpeedMPH,Gust SpeedMPH,PrecipitationIn,Events,Conditions,WindDirDegrees,DateUTC
12:15 AM,77.4,74.5,91,30.03,10.0,Calm,Calm,-,N/A,,Clear,0,2013-09-06 05:15:00
12:35 AM,76.3,73.9,92,30.03,10.0,Calm,Calm,-,N/A,,Clear,0,2013-09-06 05:35:00
12:55 AM,75.7,73.8,94,30.03,10.0,Calm,Calm,-,N/A,,Clear,0,2013-09-06 05:55:00
1:15 AM,75.7,73.9,94,30.03,10.0,Calm,Calm,-,N/A,,Clear,0,2013-09-06 06:15:00
1:35 AM,75.9,74.1,94,30.03,10.0,Calm,Calm,-,N/A,,Clear,0,2013-09-06 06:35:00
1:55 AM,75.7,73.9,94,30.03,10.0,North,3.5,-,N/A,,Clear,350,2013-09-06 06:55:00
2:15 AM,75.9,74.3,95,30.03,10.0,Calm,Calm,-,N/A,,Clear,0,2013-09-06 07:15:00
2:35 AM,76.1,74.3,94,30.03,10.0,Calm,Calm,-,N/A,,Clear,0,2013-09-06 07:35:00
2:55 AM,75.2,73.8,95,30.03,7.0,Calm,Calm,-,N/A,,Clear,0,2013-09-06 07:55:00
3:15 AM,74.8,73.6,96,30.02,10.0,Calm,Calm,-,N/A,,Scattered Clouds,0,2013-09-06 08:15:00
3:35 AM,75.6,74.1,95,30.02,10.0,Calm,Calm,-,N/A,,Scattered Clouds,0,2013-09-06 08:35:00
3:55 AM,76.1,74.5,95,30.02,10.0,North,3.5,-,N/A,,Clear,350,2013-09-06 08:55:00
4:15 AM,75.6,74.1,95,30.02,10.0,Calm,Calm,-,N/A,,Scattered Clouds,0,2013-09-06 09:15:00
4:35 AM,75.2,73.8,95,30.02,10.0,Calm,Calm,-,N/A,,Scattered Clouds,0,2013-09-06 09:35:00
4:55 AM,75.0,73.6,95,30.02,10.0,Calm,Calm,-,N/A,,Clear,0,2013-09-06 09:55:00
5:15 AM,75.0,73.8,96,30.02,10.0,Calm,Calm,-,N/A,,Clear,0,2013-09-06 10:15:00
5:35 AM,74.5,73.4,96,30.02,7.0,Calm,Calm,-,N/A,,Clear,0,2013-09-06 10:35:00
5:55 AM,74.8,73.8,96,30.01,7.0,Calm,Calm,-,N/A,,Clear,0,2013-09-06 10:55:00
6:15 AM,74.8,73.8,96,30.02,7.0,North,3.5,-,N/A,,Clear,360,2013-09-06 11:15:00
6:35 AM,74.3,73.4,97,30.02,10.0,Calm,Calm,-,N/A,,Clear,0,2013-09-06 11:35:00
6:55 AM,75.0,73.9,96,30.03,10.0,Calm,Calm,-,N/A,,Clear,0,2013-09-06 11:55:00
7:15 AM,75.4,74.1,96,30.03,10.0,Calm,Calm,-,N/A,,Clear,0,2013-09-06 12:15:00
7:35 AM,75.6,74.3,96,30.04,10.0,Calm,Calm,-,N/A,,Clear,0,2013-09-06 12:35:00
7:55 AM,76.6,75.0,95,30.04,10.0,Calm,Calm,-,N/A,,Clear,0,2013-09-06 12:55:00
8:15 AM,78.3,75.7,92,30.05,10.0,North,3.5,-,N/A,,Clear,10,2013-09-06 13:15:00
8:35 AM,79.9,76.5,89,30.06,10.0,NNE,5.8,-,N/A,,Clear,20,2013-09-06 13:35:00
8:55 AM,81.3,76.8,86,30.06,10.0,NNE,5.8,-,N/A,,Clear,20,2013-09-06 13:55:00
9:15 AM,83.3,77.2,82,30.06,10.0,NNE,6.9,-,N/A,,Clear,20,2013-09-06 14:15:00
9:35 AM,84.9,77.4,78,30.06,10.0,NE,6.9,-,N/A,,Clear,50,2013-09-06 14:35:00
9:55 AM,86.5,77.4,74,30.06,10.0,NE,10.4,-,N/A,,Scattered Clouds,40,2013-09-06 14:55:00
10:15 AM,87.4,77.2,71,30.06,10.0,NNE,6.9,-,N/A,,Clear,30,2013-09-06 15:15:00
10:35 AM,87.3,77.2,72,30.06,10.0,North,5.8,-,N/A,,Clear,10,2013-09-06 15:35:00
10:55 AM,88.7,77.2,69,30.07,10.0,NNE,5.8,-,N/A,,Mostly Cloudy,30,2013-09-06 15:55:00
11:15 AM,90.1,76.3,64,30.07,10.0,NE,9.2,-,N/A,,Mostly Cloudy,50,2013-09-06 16:15:00
11:35 AM,90.0,76.3,64,30.06,10.0,NE,4.6,-,N/A,,Scattered Clouds,40,2013-09-06 16:35:00
11:55 AM,90.1,76.3,64,30.05,10.0,East,11.5,18.4,N/A,,Scattered Clouds,90,2013-09-06 16:55:00
12:15 PM,85.6,75.7,72,30.06,10.0,East,12.7,19.6,N/A,,Mostly Cloudy,100,2013-09-06 17:15:00
12:35 PM,83.5,76.8,80,30.06,10.0,ENE,11.5,-,N/A,Rain,Light Rain,70,2013-09-06 17:35:00
12:55 PM,81.0,77.4,89,30.05,10.0,NE,10.4,-,0.07,Rain,Light Rain,40,2013-09-06 17:55:00
1:15 PM,82.8,77.4,84,30.04,10.0,ENE,6.9,-,N/A,,Scattered Clouds,70,2013-09-06 18:15:00
1:35 PM,85.1,77.2,77,30.04,10.0,ENE,10.4,-,N/A,,Clear,70,2013-09-06 18:35:00
1:55 PM,86.0,76.5,73,30.03,10.0,East,8.1,-,N/A,,Clear,100,2013-09-06 18:55:00
2:15 PM,87.1,77.2,72,30.02,10.0,East,8.1,-,N/A,,Clear,100,2013-09-06 19:15:00
2:35 PM,88.3,77.0,69,30.01,10.0,East,8.1,-,N/A,,Clear,80,2013-09-06 19:35:00
2:55 PM,89.1,76.5,66,30.01,10.0,ENE,10.4,16.1,N/A,,Clear,70,2013-09-06 19:55:00
3:15 PM,89.2,76.1,65,29.99,10.0,East,9.2,-,N/A,,Clear,80,2013-09-06 20:15:00
3:35 PM,90.3,76.5,64,29.99,10.0,East,9.2,-,N/A,,Clear,90,2013-09-06 20:35:00
3:55 PM,90.5,76.3,63,29.98,10.0,ESE,8.1,-,N/A,,Clear,110,2013-09-06 20:55:00
4:15 PM,90.1,76.1,63,29.98,10.0,ESE,8.1,-,N/A,,Clear,120,2013-09-06 21:15:00
4:35 PM,91.0,75.9,61,29.97,10.0,ESE,8.1,-,N/A,,Clear,110,2013-09-06 21:35:00
4:55 PM,91.2,76.5,62,29.97,10.0,East,11.5,17.3,N/A,,Scattered Clouds,100,2013-09-06 21:55:00
5:15 PM,90.9,75.0,60,29.97,10.0,ESE,10.4,-,N/A,,Scattered Clouds,110,2013-09-06 22:15:00
5:35 PM,90.5,75.2,61,29.97,10.0,East,12.7,-,N/A,,Clear,100,2013-09-06 22:35:00
5:55 PM,90.0,75.2,62,29.96,10.0,East,11.5,16.1,N/A,,Clear,100,2013-09-06 22:55:00
6:15 PM,88.5,75.2,65,29.96,10.0,SE,10.4,-,N/A,,Clear,130,2013-09-06 23:15:00
6:35 PM,88.2,74.8,65,29.97,10.0,East,11.5,-,N/A,,Clear,100,2013-09-06 23:35:00
6:55 PM,87.3,75.0,67,29.97,10.0,ESE,6.9,-,N/A,,Clear,120,2013-09-06 23:55:00
7:15 PM,85.3,75.2,72,29.98,10.0,SE,5.8,-,N/A,,Scattered Clouds,130,2013-09-07 00:15:00
7:35 PM,84.2,75.4,75,29.98,10.0,ESE,5.8,-,N/A,,Clear,120,2013-09-07 00:35:00
7:55 PM,82.9,75.4,78,29.97,10.0,SE,5.8,-,N/A,,Scattered Clouds,130,2013-09-07 00:55:00
8:15 PM,82.0,75.7,81,29.98,10.0,ESE,4.6,-,N/A,,Scattered Clouds,120,2013-09-07 01:15:00
8:35 PM,81.3,76.3,85,29.98,10.0,ESE,4.6,-,N/A,,Clear,120,2013-09-07 01:35:00
8:55 PM,80.8,76.5,87,29.98,10.0,ESE,3.5,-,N/A,,Clear,110,2013-09-07 01:55:00
9:15 PM,80.4,76.5,88,29.98,10.0,East,3.5,-,N/A,,Clear,80,2013-09-07 02:15:00
9:35 PM,79.7,76.3,89,29.98,10.0,ENE,4.6,-,N/A,,Clear,60,2013-09-07 02:35:00
9:55 PM,79.0,76.1,91,29.98,10.0,ENE,3.5,-,N/A,,Clear,70,2013-09-07 02:55:00
10:15 PM,78.8,75.7,90,29.98,10.0,East,3.5,-,N/A,,Clear,80,2013-09-07 03:15:00
10:35 PM,78.6,75.6,90,29.98,10.0,Calm,Calm,-,N/A,,Clear,0,2013-09-07 03:35:00
10:55 PM,78.6,75.6,90,29.97,10.0,East,4.6,-,N/A,,Clear,90,2013-09-07 03:55:00
11:15 PM,78.1,75.6,92,29.97,10.0,East,4.6,-,N/A,,Clear,90,2013-09-07 04:15:00
11:35 PM,77.9,75.4,92,29.97,10.0,East,3.5,-,N/A,,Clear,100,2013-09-07 04:35:00
11:55 PM,78.1,75.6,92,29.97,10.0,East,5.8,-,N/A,,Clear,80,2013-09-07 04:55:00